sat.trackr.live / text

‹ back to catalog

STARLINK-30701

NORAD 57950 · 2023-148R

PAYLOAD ACTIVE UNKNOWN

§ Identity

Operator
Country
US
Launch date
2023-09-25
Launch site
AFWTR
Launch vehicle
Mass (kg)
RCS (m²)

Purposes: comms

External: N2YO · Heavens-Above · Gunter

§ Orbital elements

Epoch: 2026-09-20T05:17:12.682752Z

Period
93.85 min
Inclination
53.1595°
Eccentricity
0.0000787
Mean motion
15.34401321 rev/d
Perigee alt
462.2 km
Apogee alt
463.2 km
Semi-major
6,840.8 km
B*
6.6468e-5
RAAN
197.2999°
Arg perigee
70.7903°
Mean anomaly
289.3185°
Rev number
16,825

§ Raw data

STARLINK-307011 57950U 23148R   26263.22028568  .00001870  00000+0  66468-4 0  99952 57950  53.1595 197.2999 0000787  70.7903 289.3185 15.34401321168252

JSON: /api/v1/satellites/57950 · /tle

For live sub-satellite position, see the globe view (requires WebGL).

§ Visibility from observer

Set your observer location to see the next 7 days of passes ≥ 10°. The values pass through the URL so the page stays shareable.

No JS? Fill the form by hand. The geolocation button needs JavaScript.